FLOCK 3P-64 (42034 NORAD) Tracking and Keplerian Element Data

This shows tracking and keplerian element data for the satellite.

Feedback or suggestion? Click here.




ElementValue
Catalog42034
NameFLOCK 3P-64
Epoch Orbit5543
Epoch Day45.60081256
Epoch Year2018
RAAN111.1956
Inclination97.4656
Eccentricity0.0009567
Argument of Perigee87.7929
Mean Anonmoly272.4403
Mean Motion15.23926621
Decay Rate1.27E-05
L11 42034U 17008CQ 18045.60081256 .00001270 00000-0 55500-4 0 9994
L22 42034 97.4656 111.1956 0009567 87.7929 272.4403 15.23926621 55431

Live tracking and technical data element details for FLOCK 3P-64 (NORAD 42034). FLOCK 3P-64 can be tracked NOW for your location showing map with azimuth and elevation plus other details from your city location.

Track the satellite on the map from your city or location and see movement details for azimuth, elevation, latitude, longitude, range, height, and movement on the map or in text.







IsCatalogInMostPopularTable: catalog: 42034, numindb: 160
Update: records affected: 1



GetName: 42034 FLOCK 3P-64

Hit Count: updated at: Tue, 18 Dec 2018 22:05:13 GMT